SCP
0 0 0 0 0 -0 0 -0 -0 -0 0 0 0 0 0 0 0 0 0 0 0 0 0 0 0 0 0 0 0 0 0 0 0 1 0 0 0 1 1 1 0 0 0 0 0 0 0 0 0 0 0 0 0 0
0 0 0 0 -0 -0 -0 -0 -0 -0 0 0 0 0 0 0 0 0 0 0 0 0 0 0 0 0 0 0 0 0 0 0 0 1 0 1 1 0 1 0 0 0 0 0 0 0 0 0 0 0 0 0 0 0
0 0 0 0 -0 -0 -0 -0 -0 -0 -0 0 0 0 0 0 0 0 0 0 0 0 0 0 0 0 0 -0 0 0 0 0 0 0 0 1 1 1 1 1 1 0 0 1 0 0 0 0 0 0 0 0 0 0
0 0 0 0 -0 -0 -0 -0 -0 0 0 0 0 0 0 0 0 0 0 0 0 0 0 0 0 0 0 0 0 -0 0 0 0 0 0 0 0 0 0 0 0 0 0 0 0 0 0 0 0 0 0 0 0 0
0 0 0 0 0 -0 -0 -0 -0 0 0 0 0 0 0 0 0 0 0 0 0 0 0 0 0 0 0 0 0 0 0 0 0 0 0 0 0 0 0 0 0 0 0 0 0 0 0 0 0 0 0 0 0 0
0 0 0 0 0 -0 -0 -0 -0 -0 0 0 0 0 0 0 0 0 0 0 0 0 0 0 0 0 0 0 0 0 0 0 0 0 0 0 0 0 0 0 0 0 0 0 0 0 0 0 0 0 0 0 -0 -0
0 0 0 0 0 0 0 -0 -0 -0 0 0 0 0 0 0 0 0 0 0 0 0 0 0 0 0 0 0 0 0 0 0 0 0 0 0 0 0 0 0 -0 0 0 0 0 0 0 0 0 0 0 0 -0 -0
0 0 0 0 0 0 0 0 -0 -0 0 0 0 0 0 0 0 0 0 0 0 0 0 0 0 0 0 0 0 0 0 0 0 0 0 0 0 0 0 0 0 0 0 0 0 0 0 0 0 0 0 0 -0 -0
0 0 0 0 0 0 0 0 -0 0 0 0 0 0 0 0 0 0 0 0 0 0 0 0 0 0 0 0 0 0 0 0 0 0 0 0 0 0 0 0 0 0 0 0 0 0 0 0 0 0 0 0 0 0
0 0 0 0 0 0 0 0 0 0 0 0 0 0 0 0 0 0 0 0 0 0 0 0 0 0 0 0 0 0 0 0 0 0 0 0 0 0 0 0 0 0 0 0 0 0 0 0 0 0 -0 0 0 0
0 0 0 0 0 0 0 0 0 0 0 0 0 0 0 0 0 0 0 0 0 0 0 0 0 0 0 0 0 0 0 0 0 0 0 0 0 0 0 0 0 0 0 0 0 0 0 0 0 0 -0 -0 0 0
0 0 0 0 0 0 0 -0 0 0 0 0 0 0 0 0 0 0 0 0 0 0 0 0 0 0 0 0 0 0 0 0 0 0 0 0 0 0 0 0 0 0 0 0 0 0 0 0 0 0 -0 0 0 0
0 0 0 0 0 0 0 0 0 0 0 0 0 0 0 0 0 0 0 0 0 0 0 0 0 0 0 0 0 0 0 0 0 0 0 0 0 0 0 0 0 0 -0 0 0 0 0 0 0 0 0 0 0 0
0 0 0 0 0 0 0 0 0 0 0 0 0 0 0 0 0 0 0 0 0 0 0 0 0 0 0 0 0 0 0 0 0 0 0 0 0 0 0 0 0 0 0 0 0 0 0 0 0 0 0 0 0 0
0 0 0 0 0 0 0 0 0 0 0 0 0 0 0 0 0 0 0 0 0 0 0 0 0 0 0 0 0 0 0 0 0 0 0 0 0 0 0 0 0 0 0 0 -0 -0 0 0 0 0 0 0 -0 -0
0 0 0 0 0 0 0 0 0 0 0 0 0 0 0 0 0 0 0 0 0 0 0 0 0 0 0 0 0 0 0 0 0 0 0 0 0 0 0 0 0 0 0 0 0 0 0 0 0 0 0 0 -0 -0
0 0 0 0 0 0 0 0 0 0 0 0 0 0 0 0 0 0 0 0 0 0 0 0 0 0 0 0 0 0 0 0 0 0 0 0 0 0 0 0 0 0 0 0 0 0 0 0 0 0 0 0 -0 -0
0 0 0 0 0 0 0 0 0 0 0 0 0 0 0 0 0 0 0 0 0 0 0 0 0 0 0 0 0 0 0 0 0 0 0 0 0 0 0 0 0 0 0 0 0 0 0 0 0 0 0 0 0 0
0 0 0 0 0 0 0 0 0 0 0 0 0 0 0 0 0 0 0 0 0 0 0 0 0 0 0 0 0 0 0 0 0 0 0 0 0 0 0 0 0 0 0 0 0 0 0 -0 0 0 0 0 0 0
0 0 -0 0 0 0 0 0 0 0 0 0 0 0 0 0 0 0 0 0 0 0 0 0 0 0 0 0 0 0 0 0 0 0 0 0 0 0 0 0 0 0 0 0 0 0 0 0 0 0 0 0 0 0
0 0 0 0 0 0 0 0 0 0 0 0 0 0 0 0 0 0 0 0 0 0 0 0 0 0 0 0 0 0 0 0 0 0 0 0 0 0 0 0 0 0 0 0 0 0 0 0 0 0 0 0 0 0
0 0 0 0 0 0 0 0 0 0 0 0 0 0 0 0 0 0 0 0 0 0 0 0 0 0 0 0 0 0 0 0 0 0 0 0 0 0 0 0 0 0 0 0 0 0 0 0 0 0 0 0 0 0
0 0 0 0 0 0 0 0 0 0 0 0 0 0 0 0 0 0 0 0 0 0 0 0 0 0 0 0 0 0 0 0 0 0 0 0 -0 -0 -0 -0 -0 0 0 0 0 0 0 0 0 0 0 0 0 0
0 0 0 0 0 0 0 0 0 0 0 0 0 0 0 0 0 0 0 0 0 0 0 0 0 0 0 0 0 0 0 0 0 0 0 0 0 0 0 0 0 0 0 0 0 0 0 0 0 0 0 0 0 0
0 0 0 0 0 0 0 0 0 0 0 0 0 0 0 0 0 0 0 0 0 0 0 0 0 0 0 0 0 0 0 0 0 0 0 0 0 0 0 0 0 0 0 0 0 0 0 0 0 0 0 0 0 0
0 0 0 0 0 0 0 0 0 0 0 0 0 0 0 0 0 0 0 0 0 0 0 0 0 0 0 0 0 0 0 0 0 0 0 0 0 0 0 0 0 0 0 0 0 0 0 0 0 0 0 0 0 0
0 0 0 0 0 0 0 0 0 0 0 0 0 0 0 0 0 0 0 0 0 0 0 0 0 0 0 0 0 0 0 0 0 0 0 0 0 0 0 0 0 0 0 0 0 0 0 0 0 0 0 0 0 0
0 0 0 0 0 0 0 0 0 0 0 0 0 0 0 0 0 0 0 0 0 0 0 0 0 0 0 0 0 0 0 0 0 0 0 0 0 0 0 0 0 0 0 0 0 0 0 0 0 0 0 0 0 0
-0 -0 -0 0 0 0 0 0 0 0 0 0 0 0 0 0 0 0 0 0 0 0 0 0 0 0 0 0 0 0 0 0 0 0 0 0 0 0 0 0 0 0 0 0 0 0 0 0 0 0 0 0 0 0
0 -0 -0 -0 -0 -0 0 -0 -0 0 0 0 0 0 0 0 0 0 0 0 0 0 0 0 0 -0 0 0 0 0 0 0 0 0 0 0 0 0 0 0 0 0 0 0 0 0 0 0 0 0 0 0 0 0
0 0 0 0 0 0 0 0 0 0 0 0 0 0 0 0 0 0 0 0 0 0 0 0 0 0 0 0 0 0 0 0 0 0 0 0 0 0 0 0 0 0 0 0 0 0 0 0 0 0 0 0 0 0
0 0 0 0 0 -0 0 0 0 0 0 0 0 0 0 0 0 -0 0 0 0 0 0 0 0 0 0 0 0 0 0 0 0 0 0 0 0 0 0 0 0 0 0 0 0 0 0 0 0 0 0 0 0 0
0 0 0 0 0 0 0 0 0 0 0 0 0 0 0 0 0 0 0 0 0 0 0 0 0 0 0 0 0 0 0 0 0 0 0 0 0 0 0 0 0 0 0 0 0 0 0 0 0 0 0 0 0 0
Wind_Speed_500mb
20 23 24 20 18 22 21 25 25 26 26 28 30 27 28 22 16 15 14 14 19 11 33 33 21 12 6 4 5 9 11 2 4 5 5 4 6 5 5 1 4 6 7 5 4 6 12 18 13 14 4 9 16 20
23 23 24 25 24 25 27 26 26 26 26 27 32 29 31 27 19 17 16 14 18 28 23 27 34 38 44 42 16 6 6 6 5 1 3 4 6 4 2 9 3 8 5 4 12 4 1 19 16 13 13 15 19 22
26 28 27 28 29 28 29 31 30 27 26 28 34 35 31 30 20 20 19 17 18 22 40 29 29 16 39 65 57 19 11 11 6 4 2 2 4 3 6 8 5 6 4 5 4 8 18 27 29 26 17 14 25 26
25 25 26 28 27 27 26 26 25 25 26 26 32 38 31 31 23 22 23 20 18 13 9 13 7 9 11 18 40 64 32 14 10 3 2 2 4 7 3 4 6 3 8 4 11 22 28 36 22 19 18 17 23 22
25 26 27 29 28 27 25 24 23 22 23 26 30 38 33 31 26 23 26 31 27 18 9 25 60 15 12 33 52 34 49 36 8 6 5 5 5 7 2 1 7 15 10 9 9 10 5 10 12 7 14 18 18 16
28 29 28 30 30 28 26 23 21 21 21 22 26 33 34 34 26 16 12 15 35 36 9 9 14 10 15 8 40 51 42 32 19 10 8 7 10 9 6 6 16 22 24 25 17 22 28 33 27 19 7 16 13 9
32 31 32 33 31 27 25 23 20 20 18 18 23 28 33 34 31 23 8 9 8 29 9 12 10 6 4 11 20 20 30 16 17 11 10 7 8 16 4 14 30 23 34 42 44 38 29 34 20 15 6 9 12 11
31 32 31 32 30 25 23 21 19 18 18 16 20 24 27 30 28 39 35 27 6 17 8 7 9 10 5 10 12 17 20 21 22 10 6 9 10 11 10 20 42 48 37 39 40 35 48 24 23 17 7 4 10 14
33 33 34 33 28 23 20 19 18 16 16 15 17 20 23 21 19 19 20 23 31 11 7 6 5 2 5 4 10 14 16 9 11 9 8 15 8 11 18 29 30 22 15 25 23 21 25 37 27 24 26 23 12 10
30 31 29 26 21 18 18 16 15 14 14 16 23 14 11 13 19 17 12 24 27 14 14 9 9 7 5 0 11 10 11 7 9 11 14 9 11 29 16 23 36 44 47 39 27 23 17 26 20 24 26 29 22 20
26 23 21 22 16 13 15 18 19 17 21 26 15 11 14 21 23 13 9 13 17 9 17 17 29 16 8 6 2 9 4 7 7 8 9 7 7 3 12 20 26 31 36 40 41 40 35 21 12 10 11 16 21 23
21 18 18 21 18 16 18 18 23 29 21 24 12 19 19 13 10 9 8 7 10 10 14 11 16 24 10 15 8 6 4 5 7 13 7 6 3 1 10 22 29 28 20 14 21 30 31 23 14 8 13 17 26 31
19 19 19 24 20 16 18 22 31 32 26 21 12 12 12 14 12 10 14 8 8 10 14 14 7 8 12 12 8 6 10 9 18 9 7 1 6 2 13 21 25 34 31 17 8 22 25 20 15 17 20 23 39 40
18 18 18 19 18 15 17 22 25 33 25 10 14 8 8 10 10 9 9 6 10 6 16 14 7 13 9 10 5 8 4 8 9 11 12 6 1 8 13 15 19 25 29 33 23 7 22 24 19 19 23 27 39 50
14 17 18 15 12 15 19 23 27 36 19 11 10 9 12 17 9 9 11 13 18 17 10 4 7 11 6 6 7 4 9 8 9 7 6 9 1 9 14 16 19 25 19 22 32 34 10 21 26 29 32 31 43 58
17 18 14 11 12 13 18 23 30 31 8 11 13 7 12 5 12 6 3 7 7 16 8 12 5 7 11 6 10 13 6 8 7 6 11 9 5 7 13 15 15 20 26 25 25 25 28 7 16 21 26 33 43 59
17 14 11 12 13 12 16 22 19 18 12 10 11 22 16 9 9 5 9 8 31 4 4 4 10 11 5 7 9 5 4 7 14 13 9 4 6 9 12 13 15 17 16 19 24 22 22 15 9 18 23 24 39 58
16 12 11 14 9 5 14 16 11 11 11 15 7 10 20 14 7 9 6 12 22 18 5 5 11 9 9 8 6 6 7 13 15 17 25 24 23 24 26 29 25 20 15 13 11 11 20 13 9 16 23 27 38 45
13 12 9 8 8 6 7 7 8 6 16 8 14 17 11 11 20 16 16 16 22 21 20 5 11 4 4 2 6 13 19 19 20 23 18 20 21 22 23 26 29 31 22 17 15 13 10 17 15 21 25 34 45 46
16 13 10 3 6 5 6 7 8 7 6 8 13 12 11 11 21 27 27 31 31 20 6 6 5 7 7 4 15 18 24 28 20 14 10 11 14 17 22 23 27 35 31 22 17 5 3 4 9 17 28 40 50 53
12 11 7 6 6 13 5 6 10 8 6 9 8 16 11 21 23 26 24 27 18 10 7 15 9 18 24 23 25 27 22 15 7 4 1 2 8 10 13 21 25 28 32 28 18 12 8 5 6 8 27 37 47 57
12 11 4 7 5 8 10 12 8 3 6 5 5 9 7 9 17 19 23 28 21 41 40 34 21 17 26 34 27 14 6 4 7 12 17 19 19 11 9 13 21 26 29 33 24 8 8 7 3 6 19 34 42 50
13 9 5 8 7 8 7 11 9 10 7 6 9 7 9 10 13 14 11 20 27 41 42 49 56 40 35 27 24 21 18 19 22 26 26 28 30 25 19 15 17 23 27 28 26 7 4 6 4 9 17 32 46 50
11 6 6 8 13 6 4 8 10 7 7 6 7 7 7 9 10 10 8 9 16 28 47 52 54 57 61 58 51 41 32 29 27 28 31 31 32 31 25 25 23 28 27 27 25 15 14 17 13 9 16 27 45 52
6 9 8 9 9 6 7 5 7 7 7 10 6 7 6 6 6 7 6 6 18 22 27 35 49 55 49 38 36 34 28 25 24 27 32 32 27 25 28 29 29 32 32 31 27 21 18 22 23 26 22 24 38 47
6 10 14 13 8 9 9 6 10 11 7 8 10 7 3 5 6 10 5 12 16 22 22 23 25 22 22 26 26 26 25 20 19 20 23 29 32 32 29 31 38 35 29 31 28 25 19 11 23 33 24 15 25 39
8 11 13 14 6 5 8 11 8 6 8 10 5 6 6 8 11 5 11 24 28 27 25 22 19 17 14 9 6 10 18 24 23 23 19 17 18 22 27 28 30 26 21 20 9 13 12 8 7 28 34 29 35 39
14 8 13 15 14 15 7 5 7 11 11 13 6 11 8 10 6 9 14 33 28 24 19 12 10 12 10 6 7 7 5 13 23 23 25 23 21 19 13 17 21 23 25 21 12 9 10 14 11 15 25 30 37 44
11 10 11 10 12 13 17 14 10 16 15 19 9 9 7 10 7 13 17 33 31 24 14 16 23 27 27 21 15 12 13 14 19 27 32 30 20 19 22 19 19 18 28 27 19 11 11 11 11 9 21 34 42 42
13 24 13 11 10 15 20 33 23 24 32 31 31 20 21 28 24 21 20 23 31 39 43 45 47 46 38 30 28 24 16 17 19 27 26 27 20 19 20 17 16 11 22 28 20 15 14 17 19 31 49 49 48 44
8 17 13 16 11 24 41 40 39 41 32 33 39 40 51 53 46 44 54 57 57 57 57 58 58 57 52 39 36 35 27 17 12 19 31 32 22 13 12 14 7 5 13 17 18 15 12 17 22 28 42 46 48 50
18 26 15 11 9 17 21 15 12 12 21 31 37 33 30 23 27 36 43 49 55 61 66 68 62 61 57 58 52 49 46 33 26 19 27 33 27 16 18 22 20 13 12 16 26 25 20 20 27 31 37 44 42 39
17 21 23 13 10 9 11 15 10 11 22 21 31 40 41 35 20 27 33 40 44 46 52 55 55 55 56 58 59 55 52 43 34 24 30 38 32 30 27 26 28 28 22 21 24 30 25 27 28 29 34 32 32 34
Wind_Direction_500mb
318 316 312 301 286 287 280 270 271 266 261 244 237 237 236 249 262 278 260 245 231 251 266 262 255 233 221 244 287 341 312 208 286 231 227 173 221 168 227 96 256 216 189 189 152 213 244 148 140 207 26 321 313 313
303 293 301 305 297 287 287 282 278 271 261 245 229 242 241 239 244 263 276 263 242 247 262 268 270 257 248 250 253 273 295 288 291 6 204 190 195 184 297 224 155 230 250 235 223 247 131 197 246 240 303 305 321 322
299 298 300 298 296 291 283 282 279 268 258 249 226 229 240 237 239 251 259 258 270 278 292 274 270 270 248 240 235 244 249 229 266 250 177 67 262 162 202 220 220 209 160 242 286 218 252 256 253 263 277 298 321 313
299 301 303 302 303 298 287 287 282 268 258 251 226 223 235 229 237 250 252 265 253 270 280 282 301 284 254 251 227 223 226 265 262 241 213 177 244 204 234 349 266 59 150 275 265 276 284 277 279 272 279 297 321 328
297 299 301 303 302 300 293 286 279 263 260 253 235 219 222 227 233 250 258 262 248 232 287 289 299 302 315 237 221 214 216 220 252 278 230 231 159 176 141 236 252 195 182 206 262 354 291 333 349 325 330 339 330 319
298 297 301 304 300 295 291 284 275 262 258 250 230 217 217 219 218 226 276 265 238 224 275 294 292 290 303 275 206 213 210 205 211 224 238 233 226 207 202 221 255 221 231 238 266 290 298 289 297 310 327 356 9 342
298 299 302 301 299 292 281 278 276 260 252 241 226 216 217 214 206 199 228 313 264 190 237 281 283 266 307 152 166 179 188 197 201 224 234 228 196 180 231 243 259 263 266 273 276 274 276 259 265 257 324 15 20 18
300 300 301 301 298 288 272 268 263 254 242 230 214 213 212 217 220 231 246 261 237 176 238 270 275 300 187 179 143 162 169 187 202 226 226 209 154 214 245 243 261 271 276 278 281 267 268 246 256 253 263 35 10 2
300 301 301 298 292 279 262 260 251 247 232 220 206 204 204 204 208 231 246 221 209 218 273 231 265 279 305 162 143 166 168 174 179 217 218 170 179 218 228 242 266 288 281 297 313 315 288 237 237 239 256 256 268 290
302 307 306 303 286 267 254 241 233 228 207 187 173 162 197 195 192 174 156 173 198 227 228 246 224 259 306 321 186 177 190 182 184 204 143 213 243 253 261 279 284 286 283 281 269 265 284 256 235 249 259 254 239 237
301 308 315 311 298 277 241 237 212 199 180 181 186 199 186 174 166 181 191 196 189 224 212 230 212 234 260 247 268 211 184 172 210 158 210 203 243 159 345 340 323 299 280 264 256 258 261 258 264 260 233 216 204 196
289 288 292 296 281 260 234 215 199 195 189 186 189 163 158 186 201 190 200 189 215 227 197 198 212 201 229 209 222 197 223 189 215 137 192 235 149 116 356 3 359 354 338 268 247 235 233 233 229 220 190 187 186 181
281 278 285 291 283 260 231 214 209 207 197 186 220 159 191 178 209 215 184 198 212 205 194 184 188 182 201 204 220 205 203 207 131 184 214 236 156 283 338 349 9 20 28 21 293 221 209 210 196 200 190 179 177 183
266 276 285 285 276 253 218 201 205 200 196 202 188 220 211 182 232 199 219 201 229 251 180 173 160 190 184 182 215 224 173 155 197 208 219 159 211 320 335 350 357 7 26 31 25 308 208 199 206 203 205 195 185 179
265 280 280 285 285 247 219 204 193 197 205 216 203 226 218 241 267 262 261 277 267 271 236 219 207 190 179 224 208 195 187 214 209 182 120 154 93 25 17 18 17 12 357 4 14 25 331 206 202 221 220 212 198 190
270 271 273 272 281 263 225 206 202 201 222 221 207 251 240 283 256 259 262 280 14 317 243 227 201 192 208 207 191 208 201 194 150 143 145 149 131 39 24 17 19 16 16 9 356 3 17 298 204 210 216 204 205 201
253 240 278 287 275 264 218 191 178 192 215 213 229 229 246 283 262 256 325 339 343 323 212 178 228 198 113 198 195 196 202 135 130 136 120 70 23 32 36 20 0 351 352 356 358 356 349 353 270 210 176 181 186 202
235 229 257 282 293 221 191 203 202 212 216 233 224 226 216 226 237 256 273 325 7 346 301 249 302 206 187 164 179 171 135 127 121 116 105 87 68 50 38 27 14 354 340 341 344 342 350 330 275 222 176 173 188 188
212 224 249 282 244 221 205 238 198 231 228 241 240 240 232 226 240 249 285 292 320 317 303 216 229 195 158 177 159 154 148 141 140 133 104 82 66 48 39 29 21 13 359 341 330 335 314 324 257 214 189 176 181 177
228 228 231 262 254 227 213 233 216 233 221 220 223 219 224 232 251 264 270 272 296 326 281 282 220 176 189 210 162 163 152 142 139 142 128 90 61 41 24 10 4 6 8 0 349 357 335 316 222 198 198 183 179 177
208 207 228 266 258 219 255 262 221 226 226 236 216 209 232 251 249 245 247 236 206 212 256 246 242 226 200 187 153 133 123 121 125 123 133 316 355 3 4 3 3 4 7 9 2 15 42 43 56 204 202 190 183 182
183 183 210 224 242 206 248 230 243 284 235 255 217 205 250 239 237 232 225 204 222 218 223 237 260 220 196 177 173 171 187 269 290 288 288 294 301 308 317 331 347 357 356 357 350 340 305 253 285 143 182 185 185 187
178 184 215 220 241 222 254 209 222 204 212 210 182 213 219 220 226 202 224 221 229 227 230 234 239 239 245 227 233 245 262 275 276 274 273 274 273 269 271 286 308 322 334 345 347 313 184 262 219 140 163 181 181 178
177 203 226 220 206 251 235 222 217 222 217 224 205 238 226 221 188 214 243 217 217 219 219 221 224 231 237 245 250 255 263 272 267 262 257 256 263 253 253 274 285 284 296 311 328 300 258 259 255 253 163 175 178 178
195 222 211 231 208 226 224 221 210 212 237 206 226 240 226 201 224 235 231 221 214 214 214 215 219 225 233 238 244 247 235 239 259 274 246 249 231 237 257 268 278 271 268 277 300 307 284 267 242 220 194 180 183 180
224 218 198 204 197 210 207 224 209 214 203 209 226 250 245 227 237 242 224 198 194 186 183 192 206 216 226 229 227 228 238 242 246 260 240 234 240 253 262 269 273 269 261 256 279 292 287 280 212 212 219 231 189 185
243 227 216 215 221 211 241 245 246 246 220 219 217 201 201 224 233 236 179 156 143 141 138 129 118 116 119 114 167 216 235 234 238 246 244 233 231 247 267 260 271 274 241 228 267 272 279 257 204 197 197 198 196 192
237 232 209 193 207 218 244 242 220 216 214 209 198 203 214 217 241 189 176 175 161 153 141 113 70 42 38 8 348 344 279 235 234 245 237 218 244 249 272 302 285 249 234 238 260 280 255 230 220 211 212 205 196 183
230 226 198 221 212 214 220 221 234 226 214 188 201 205 228 223 199 185 189 190 187 188 213 276 300 306 310 310 307 313 317 299 256 232 225 229 242 257 274 294 313 248 226 233 245 249 217 203 181 198 188 172 173 187
232 201 214 214 209 220 224 206 229 230 232 231 233 255 260 253 239 251 252 229 235 257 270 280 282 282 284 285 286 274 277 282 266 232 227 228 243 267 282 292 286 237 219 225 231 214 203 188 174 152 155 165 171 181
218 186 223 228 246 243 243 244 249 254 253 248 250 247 254 266 271 261 261 261 259 260 261 262 262 264 264 261 262 261 261 262 249 235 230 226 220 233 238 228 266 240 194 192 192 205 220 214 207 194 188 187 190 193
207 207 207 224 247 268 272 250 243 234 247 239 245 247 255 250 255 267 257 253 249 250 254 256 251 250 248 252 251 246 241 233 232 250 237 229 224 218 223 225 235 247 239 230 222 220 228 234 217 217 209 200 198 200
236 233 233 270 267 256 245 205 234 259 239 240 244 248 244 245 250 259 260 251 245 247 252 254 252 246 241 242 243 233 231 226 223 237 234 230 224 226 238 239 235 235 240 264 237 219 227 226 209 195 195 205 210 210
Wind_Speed_850mb
20 23 24 20 18 22 21 25 25 26 26 28 30 27 28 22 16 15 14 14 19 11 33 33 21 12 6 4 5 9 11 2 4 5 5 4 6 5 5 1 4 6 7 5 4 6 12 18 13 14 4 9 16 20
23 23 24 25 24 25 27 26 26 26 26 27 32 29 31 27 19 17 16 14 18 28 23 27 34 38 44 42 16 6 6 6 5 1 3 4 6 4 2 9 3 8 5 4 12 4 1 19 16 13 13 15 19 22
26 28 27 28 29 28 29 31 30 27 26 28 34 35 31 30 20 20 19 17 18 22 40 29 29 16 39 65 57 19 11 11 6 4 2 2 4 3 6 8 5 6 4 5 4 8 18 27 29 26 17 14 25 26
25 25 26 28 27 27 26 26 25 25 26 26 32 38 31 31 23 22 23 20 18 13 9 13 7 9 11 18 40 64 32 14 10 3 2 2 4 7 3 4 6 3 8 4 11 22 28 36 22 19 18 17 23 22
25 26 27 29 28 27 25 24 23 22 23 26 30 38 33 31 26 23 26 31 27 18 9 25 60 15 12 33 52 34 49 36 8 6 5 5 5 7 2 1 7 15 10 9 9 10 5 10 12 7 14 18 18 16
28 29 28 30 30 28 26 23 21 21 21 22 26 33 34 34 26 16 12 15 35 36 9 9 14 10 15 8 40 51 42 32 19 10 8 7 10 9 6 6 16 22 24 25 17 22 28 33 27 19 7 16 13 9
32 31 32 33 31 27 25 23 20 20 18 18 23 28 33 34 31 23 8 9 8 29 9 12 10 6 4 11 20 20 30 16 17 11 10 7 8 16 4 14 30 23 34 42 44 38 29 34 20 15 6 9 12 11
31 32 31 32 30 25 23 21 19 18 18 16 20 24 27 30 28 39 35 27 6 17 8 7 9 10 5 10 12 17 20 21 22 10 6 9 10 11 10 20 42 48 37 39 40 35 48 24 23 17 7 4 10 14
33 33 34 33 28 23 20 19 18 16 16 15 17 20 23 21 19 19 20 23 31 11 7 6 5 2 5 4 10 14 16 9 11 9 8 15 8 11 18 29 30 22 15 25 23 21 25 37 27 24 26 23 12 10
30 31 29 26 21 18 18 16 15 14 14 16 23 14 11 13 19 17 12 24 27 14 14 9 9 7 5 0 11 10 11 7 9 11 14 9 11 29 16 23 36 44 47 39 27 23 17 26 20 24 26 29 22 20
26 23 21 22 16 13 15 18 19 17 21 26 15 11 14 21 23 13 9 13 17 9 17 17 29 16 8 6 2 9 4 7 7 8 9 7 7 3 12 20 26 31 36 40 41 40 35 21 12 10 11 16 21 23
21 18 18 21 18 16 18 18 23 29 21 24 12 19 19 13 10 9 8 7 10 10 14 11 16 24 10 15 8 6 4 5 7 13 7 6 3 1 10 22 29 28 20 14 21 30 31 23 14 8 13 17 26 31
19 19 19 24 20 16 18 22 31 32 26 21 12 12 12 14 12 10 14 8 8 10 14 14 7 8 12 12 8 6 10 9 18 9 7 1 6 2 13 21 25 34 31 17 8 22 25 20 15 17 20 23 39 40
18 18 18 19 18 15 17 22 25 33 25 10 14 8 8 10 10 9 9 6 10 6 16 14 7 13 9 10 5 8 4 8 9 11 12 6 1 8 13 15 19 25 29 33 23 7 22 24 19 19 23 27 39 50
14 17 18 15 12 15 19 23 27 36 19 11 10 9 12 17 9 9 11 13 18 17 10 4 7 11 6 6 7 4 9 8 9 7 6 9 1 9 14 16 19 25 19 22 32 34 10 21 26 29 32 31 43 58
17 18 14 11 12 13 18 23 30 31 8 11 13 7 12 5 12 6 3 7 7 16 8 12 5 7 11 6 10 13 6 8 7 6 11 9 5 7 13 15 15 20 26 25 25 25 28 7 16 21 26 33 43 59
17 14 11 12 13 12 16 22 19 18 12 10 11 22 16 9 9 5 9 8 31 4 4 4 10 11 5 7 9 5 4 7 14 13 9 4 6 9 12 13 15 17 16 19 24 22 22 15 9 18 23 24 39 58
16 12 11 14 9 5 14 16 11 11 11 15 7 10 20 14 7 9 6 12 22 18 5 5 11 9 9 8 6 6 7 13 15 17 25 24 23 24 26 29 25 20 15 13 11 11 20 13 9 16 23 27 38 45
13 12 9 8 8 6 7 7 8 6 16 8 14 17 11 11 20 16 16 16 22 21 20 5 11 4 4 2 6 13 19 19 20 23 18 20 21 22 23 26 29 31 22 17 15 13 10 17 15 21 25 34 45 46
16 13 10 3 6 5 6 7 8 7 6 8 13 12 11 11 21 27 27 31 31 20 6 6 5 7 7 4 15 18 24 28 20 14 10 11 14 17 22 23 27 35 31 22 17 5 3 4 9 17 28 40 50 53
12 11 7 6 6 13 5 6 10 8 6 9 8 16 11 21 23 26 24 27 18 10 7 15 9 18 24 23 25 27 22 15 7 4 1 2 8 10 13 21 25 28 32 28 18 12 8 5 6 8 27 37 47 57
12 11 4 7 5 8 10 12 8 3 6 5 5 9 7 9 17 19 23 28 21 41 40 34 21 17 26 34 27 14 6 4 7 12 17 19 19 11 9 13 21 26 29 33 24 8 8 7 3 6 19 34 42 50
13 9 5 8 7 8 7 11 9 10 7 6 9 7 9 10 13 14 11 20 27 41 42 49 56 40 35 27 24 21 18 19 22 26 26 28 30 25 19 15 17 23 27 28 26 7 4 6 4 9 17 32 46 50
11 6 6 8 13 6 4 8 10 7 7 6 7 7 7 9 10 10 8 9 16 28 47 52 54 57 61 58 51 41 32 29 27 28 31 31 32 31 25 25 23 28 27 27 25 15 14 17 13 9 16 27 45 52
6 9 8 9 9 6 7 5 7 7 7 10 6 7 6 6 6 7 6 6 18 22 27 35 49 55 49 38 36 34 28 25 24 27 32 32 27 25 28 29 29 32 32 31 27 21 18 22 23 26 22 24 38 47
6 10 14 13 8 9 9 6 10 11 7 8 10 7 3 5 6 10 5 12 16 22 22 23 25 22 22 26 26 26 25 20 19 20 23 29 32 32 29 31 38 35 29 31 28 25 19 11 23 33 24 15 25 39
8 11 13 14 6 5 8 11 8 6 8 10 5 6 6 8 11 5 11 24 28 27 25 22 19 17 14 9 6 10 18 24 23 23 19 17 18 22 27 28 30 26 21 20 9 13 12 8 7 28 34 29 35 39
14 8 13 15 14 15 7 5 7 11 11 13 6 11 8 10 6 9 14 33 28 24 19 12 10 12 10 6 7 7 5 13 23 23 25 23 21 19 13 17 21 23 25 21 12 9 10 14 11 15 25 30 37 44
11 10 11 10 12 13 17 14 10 16 15 19 9 9 7 10 7 13 17 33 31 24 14 16 23 27 27 21 15 12 13 14 19 27 32 30 20 19 22 19 19 18 28 27 19 11 11 11 11 9 21 34 42 42
13 24 13 11 10 15 20 33 23 24 32 31 31 20 21 28 24 21 20 23 31 39 43 45 47 46 38 30 28 24 16 17 19 27 26 27 20 19 20 17 16 11 22 28 20 15 14 17 19 31 49 49 48 44
8 17 13 16 11 24 41 40 39 41 32 33 39 40 51 53 46 44 54 57 57 57 57 58 58 57 52 39 36 35 27 17 12 19 31 32 22 13 12 14 7 5 13 17 18 15 12 17 22 28 42 46 48 50
18 26 15 11 9 17 21 15 12 12 21 31 37 33 30 23 27 36 43 49 55 61 66 68 62 61 57 58 52 49 46 33 26 19 27 33 27 16 18 22 20 13 12 16 26 25 20 20 27 31 37 44 42 39
17 21 23 13 10 9 11 15 10 11 22 21 31 40 41 35 20 27 33 40 44 46 52 55 55 55 56 58 59 55 52 43 34 24 30 38 32 30 27 26 28 28 22 21 24 30 25 27 28 29 34 32 32 34
Wind_Direction_850mb
318 316 312 301 286 287 280 270 271 266 261 244 237 237 236 249 262 278 260 245 231 251 266 262 255 233 221 244 287 341 312 208 286 231 227 173 221 168 227 96 256 216 189 189 152 213 244 148 140 207 26 321 313 313
303 293 301 305 297 287 287 282 278 271 261 245 229 242 241 239 244 263 276 263 242 247 262 268 270 257 248 250 253 273 295 288 291 6 204 190 195 184 297 224 155 230 250 235 223 247 131 197 246 240 303 305 321 322
299 298 300 298 296 291 283 282 279 268 258 249 226 229 240 237 239 251 259 258 270 278 292 274 270 270 248 240 235 244 249 229 266 250 177 67 262 162 202 220 220 209 160 242 286 218 252 256 253 263 277 298 321 313
299 301 303 302 303 298 287 287 282 268 258 251 226 223 235 229 237 250 252 265 253 270 280 282 301 284 254 251 227 223 226 265 262 241 213 177 244 204 234 349 266 59 150 275 265 276 284 277 279 272 279 297 321 328
297 299 301 303 302 300 293 286 279 263 260 253 235 219 222 227 233 250 258 262 248 232 287 289 299 302 315 237 221 214 216 220 252 278 230 231 159 176 141 236 252 195 182 206 262 354 291 333 349 325 330 339 330 319
298 297 301 304 300 295 291 284 275 262 258 250 230 217 217 219 218 226 276 265 238 224 275 294 292 290 303 275 206 213 210 205 211 224 238 233 226 207 202 221 255 221 231 238 266 290 298 289 297 310 327 356 9 342
298 299 302 301 299 292 281 278 276 260 252 241 226 216 217 214 206 199 228 313 264 190 237 281 283 266 307 152 166 179 188 197 201 224 234 228 196 180 231 243 259 263 266 273 276 274 276 259 265 257 324 15 20 18
300 300 301 301 298 288 272 268 263 254 242 230 214 213 212 217 220 231 246 261 237 176 238 270 275 300 187 179 143 162 169 187 202 226 226 209 154 214 245 243 261 271 276 278 281 267 268 246 256 253 263 35 10 2
300 301 301 298 292 279 262 260 251 247 232 220 206 204 204 204 208 231 246 221 209 218 273 231 265 279 305 162 143 166 168 174 179 217 218 170 179 218 228 242 266 288 281 297 313 315 288 237 237 239 256 256 268 290
302 307 306 303 286 267 254 241 233 228 207 187 173 162 197 195 192 174 156 173 198 227 228 246 224 259 306 321 186 177 190 182 184 204 143 213 243 253 261 279 284 286 283 281 269 265 284 256 235 249 259 254 239 237
301 308 315 311 298 277 241 237 212 199 180 181 186 199 186 174 166 181 191 196 189 224 212 230 212 234 260 247 268 211 184 172 210 158 210 203 243 159 345 340 323 299 280 264 256 258 261 258 264 260 233 216 204 196
289 288 292 296 281 260 234 215 199 195 189 186 189 163 158 186 201 190 200 189 215 227 197 198 212 201 229 209 222 197 223 189 215 137 192 235 149 116 356 3 359 354 338 268 247 235 233 233 229 220 190 187 186 181
281 278 285 291 283 260 231 214 209 207 197 186 220 159 191 178 209 215 184 198 212 205 194 184 188 182 201 204 220 205 203 207 131 184 214 236 156 283 338 349 9 20 28 21 293 221 209 210 196 200 190 179 177 183
266 276 285 285 276 253 218 201 205 200 196 202 188 220 211 182 232 199 219 201 229 251 180 173 160 190 184 182 215 224 173 155 197 208 219 159 211 320 335 350 357 7 26 31 25 308 208 199 206 203 205 195 185 179
265 280 280 285 285 247 219 204 193 197 205 216 203 226 218 241 267 262 261 277 267 271 236 219 207 190 179 224 208 195 187 214 209 182 120 154 93 25 17 18 17 12 357 4 14 25 331 206 202 221 220 212 198 190
270 271 273 272 281 263 225 206 202 201 222 221 207 251 240 283 256 259 262 280 14 317 243 227 201 192 208 207 191 208 201 194 150 143 145 149 131 39 24 17 19 16 16 9 356 3 17 298 204 210 216 204 205 201
253 240 278 287 275 264 218 191 178 192 215 213 229 229 246 283 262 256 325 339 343 323 212 178 228 198 113 198 195 196 202 135 130 136 120 70 23 32 36 20 0 351 352 356 358 356 349 353 270 210 176 181 186 202
235 229 257 282 293 221 191 203 202 212 216 233 224 226 216 226 237 256 273 325 7 346 301 249 302 206 187 164 179 171 135 127 121 116 105 87 68 50 38 27 14 354 340 341 344 342 350 330 275 222 176 173 188 188
212 224 249 282 244 221 205 238 198 231 228 241 240 240 232 226 240 249 285 292 320 317 303 216 229 195 158 177 159 154 148 141 140 133 104 82 66 48 39 29 21 13 359 341 330 335 314 324 257 214 189 176 181 177
228 228 231 262 254 227 213 233 216 233 221 220 223 219 224 232 251 264 270 272 296 326 281 282 220 176 189 210 162 163 152 142 139 142 128 90 61 41 24 10 4 6 8 0 349 357 335 316 222 198 198 183 179 177
208 207 228 266 258 219 255 262 221 226 226 236 216 209 232 251 249 245 247 236 206 212 256 246 242 226 200 187 153 133 123 121 125 123 133 316 355 3 4 3 3 4 7 9 2 15 42 43 56 204 202 190 183 182
183 183 210 224 242 206 248 230 243 284 235 255 217 205 250 239 237 232 225 204 222 218 223 237 260 220 196 177 173 171 187 269 290 288 288 294 301 308 317 331 347 357 356 357 350 340 305 253 285 143 182 185 185 187
178 184 215 220 241 222 254 209 222 204 212 210 182 213 219 220 226 202 224 221 229 227 230 234 239 239 245 227 233 245 262 275 276 274 273 274 273 269 271 286 308 322 334 345 347 313 184 262 219 140 163 181 181 178
177 203 226 220 206 251 235 222 217 222 217 224 205 238 226 221 188 214 243 217 217 219 219 221 224 231 237 245 250 255 263 272 267 262 257 256 263 253 253 274 285 284 296 311 328 300 258 259 255 253 163 175 178 178
195 222 211 231 208 226 224 221 210 212 237 206 226 240 226 201 224 235 231 221 214 214 214 215 219 225 233 238 244 247 235 239 259 274 246 249 231 237 257 268 278 271 268 277 300 307 284 267 242 220 194 180 183 180
224 218 198 204 197 210 207 224 209 214 203 209 226 250 245 227 237 242 224 198 194 186 183 192 206 216 226 229 227 228 238 242 246 260 240 234 240 253 262 269 273 269 261 256 279 292 287 280 212 212 219 231 189 185
243 227 216 215 221 211 241 245 246 246 220 219 217 201 201 224 233 236 179 156 143 141 138 129 118 116 119 114 167 216 235 234 238 246 244 233 231 247 267 260 271 274 241 228 267 272 279 257 204 197 197 198 196 192
237 232 209 193 207 218 244 242 220 216 214 209 198 203 214 217 241 189 176 175 161 153 141 113 70 42 38 8 348 344 279 235 234 245 237 218 244 249 272 302 285 249 234 238 260 280 255 230 220 211 212 205 196 183
230 226 198 221 212 214 220 221 234 226 214 188 201 205 228 223 199 185 189 190 187 188 213 276 300 306 310 310 307 313 317 299 256 232 225 229 242 257 274 294 313 248 226 233 245 249 217 203 181 198 188 172 173 187
232 201 214 214 209 220 224 206 229 230 232 231 233 255 260 253 239 251 252 229 235 257 270 280 282 282 284 285 286 274 277 282 266 232 227 228 243 267 282 292 286 237 219 225 231 214 203 188 174 152 155 165 171 181
218 186 223 228 246 243 243 244 249 254 253 248 250 247 254 266 271 261 261 261 259 260 261 262 262 264 264 261 262 261 261 262 249 235 230 226 220 233 238 228 266 240 194 192 192 205 220 214 207 194 188 187 190 193
207 207 207 224 247 268 272 250 243 234 247 239 245 247 255 250 255 267 257 253 249 250 254 256 251 250 248 252 251 246 241 233 232 250 237 229 224 218 223 225 235 247 239 230 222 220 228 234 217 217 209 200 198 200
236 233 233 270 267 256 245 205 234 259 239 240 244 248 244 245 250 259 260 251 245 247 252 254 252 246 241 242 243 233 231 226 223 237 234 230 224 226 238 239 235 235 240 264 237 219 227 226 209 195 195 205 210 210